Weather History for KYKN - October, 2012

Change the Weather History Date:

Wednesday, October 3, 2012

  Actual Average Record
Temperature  
Mean Temperature 65 °F -  
Max Temperature 84 °F 71 °F 93 °F (1953)
Min Temperature 46 °F 42 °F 27 °F (1950)
Growing Degree Days 15 (Base 50)    
Moisture  
Dew Point 34 °F    
Average Humidity 37    
Maximum Humidity 62    
Minimum Humidity 19    
Precipitation  
Precipitation 0.00 in - - ()
Sea Level Pressure  
Sea Level Pressure 29.79 in    
Wind  
Wind Speed 12 mph (SE)    
Max Wind Speed 30 mph    
Max Gust Speed 38 mph    
Visibility 10 miles    
Events      
Averages and records for this station are not official NWS values.
T = Trace of Precipitation, MM = Missing Value Source: NWS Daily Summary

Daily Weather History Graph

Daily Weather History Graph

Search for Another Location

Airport or City:

Trip Planner

Search our weather history database for the weather conditions in past years. The results will help you decide how hot, cold, wet, or windy it might be!

Date:

Astronomy

Oct. 03, 2012 Rise Set
Actual Time 7:29 AM CDT 7:06 PM CDT
Civil Twilight 7:01 AM CDT 7:34 PM CDT
Nautical Twilight 6:28 AM CDT 8:07 PM CDT
Astronomical Twilight 5:55 AM CDT 8:40 PM CDT
Moon 8:53 PM CDT (10/3) 11:00 AM CDT (10/3)
Length of Visible Light 12h 33m
Length of Day
11h 36m
Waning Gibbous, 88% of the Moon is Illuminated
Oct 3
Waning Gibbous
Oct 8
Last Quarter
Oct 15
New
Oct 21
First Quarter
Oct 29
Full

Hourly Weather History & Observations

Time (CDT) Temp. Windchill Dew Point Humidity Pressure Visibility Wind Dir Wind Speed Gust Speed Precip Events Conditions
12:15 AM 55.4 °F - 26.6 °F 33% 29.83 in 10.0 mi SSE 6.9 mph - N/A   Clear
12:35 AM 55.4 °F - 26.6 °F 33% 29.83 in 10.0 mi SSE 4.6 mph - N/A   Clear
12:55 AM 55.4 °F - 26.6 °F 33% 29.83 in 10.0 mi SE 4.6 mph - N/A   Clear
1:15 AM 55.4 °F - 26.6 °F 33% 29.83 in 10.0 mi ESE 5.8 mph - N/A   Clear
1:35 AM 55.4 °F - 26.6 °F 33% 29.83 in 10.0 mi ESE 6.9 mph - N/A   Clear
1:55 AM 53.6 °F - 26.6 °F 35% 29.83 in 10.0 mi East 8.1 mph - N/A   Clear
2:15 AM 51.8 °F - 26.6 °F 38% 29.83 in 10.0 mi ESE 9.2 mph - N/A   Clear
2:35 AM 51.8 °F - 26.6 °F 38% 29.83 in 10.0 mi ESE 5.8 mph - N/A   Clear
2:55 AM 51.8 °F - 26.6 °F 38% 29.83 in 10.0 mi ESE 8.1 mph - N/A   Clear
3:15 AM 50.0 °F - 28.4 °F 43% 29.83 in 10.0 mi ESE 5.8 mph - N/A   Clear
3:35 AM 51.8 °F - 28.4 °F 41% 29.82 in 10.0 mi ESE 6.9 mph - N/A   Clear
3:55 AM 50.0 °F - 28.4 °F 43% 29.82 in 10.0 mi East 6.9 mph - N/A   Clear
4:15 AM 50.0 °F - 28.4 °F 43% 29.82 in 10.0 mi East 5.8 mph - N/A   Clear
4:35 AM 48.2 °F - 28.4 °F 46% 29.82 in 10.0 mi East 5.8 mph - N/A   Clear
4:55 AM 48.2 °F - 28.4 °F 46% 29.83 in 10.0 mi East 8.1 mph - N/A   Clear
5:15 AM 48.2 °F - 30.2 °F 50% 29.82 in 10.0 mi East 5.8 mph - N/A   Clear
5:55 AM 48.2 °F - 30.2 °F 50% 29.83 in 10.0 mi East 6.9 mph - N/A   Clear
6:15 AM 46.4 °F 41.9 °F 28.4 °F 50% 29.83 in 10.0 mi ENE 9.2 mph - N/A   Clear
6:35 AM 46.4 °F 41.9 °F 28.4 °F 50% 29.83 in 10.0 mi East 9.2 mph - N/A   Clear
6:55 AM 48.2 °F - 30.2 °F 50% 29.83 in 10.0 mi East 9.2 mph - N/A   Clear
7:15 AM 46.4 °F 42.4 °F 30.2 °F 53% 29.83 in 10.0 mi East 8.1 mph - N/A   Clear
7:35 AM 46.4 °F 41.5 °F 30.2 °F 53% 29.83 in 10.0 mi East 10.4 mph - N/A   Clear
7:55 AM 48.2 °F - 30.2 °F 50% 29.82 in 10.0 mi East 9.2 mph - N/A   Clear
8:15 AM 46.4 °F 43.5 °F 30.2 °F 53% 29.82 in 10.0 mi East 5.8 mph - N/A   Clear
8:35 AM 48.2 °F - 30.2 °F 50% 29.81 in 10.0 mi East 6.9 mph - N/A   Clear
8:55 AM 51.8 °F - 32.0 °F 47% 29.80 in 10.0 mi East 6.9 mph - N/A   Clear
9:15 AM 55.4 °F - 33.8 °F 44% 29.79 in 10.0 mi East 9.2 mph - N/A   Clear
9:35 AM 59.0 °F - 33.8 °F 39% 29.79 in 10.0 mi ESE 8.1 mph - N/A   Clear
9:55 AM 60.8 °F - 33.8 °F 36% 29.79 in 10.0 mi ESE 9.2 mph - N/A   Clear
10:15 AM 62.6 °F - 35.6 °F 37% 29.79 in 10.0 mi ESE 9.2 mph - N/A   Clear
10:35 AM 66.2 °F - 35.6 °F 32% 29.79 in 10.0 mi ESE 10.4 mph - N/A   Clear
10:55 AM 69.8 °F - 35.6 °F 28% 29.78 in 10.0 mi SE 12.7 mph - N/A   Clear
11:15 AM 71.6 °F - 37.4 °F 29% 29.78 in 10.0 mi ESE 15.0 mph - N/A   Clear
11:35 AM 73.4 °F - 35.6 °F 25% 29.77 in 10.0 mi SE 11.5 mph 17.3 mph N/A   Clear
11:55 AM 77.0 °F - 35.6 °F 22% 29.75 in 10.0 mi SSE 19.6 mph 28.8 mph N/A   Clear
12:15 PM 78.8 °F - 37.4 °F 23% 29.74 in 10.0 mi SE 18.4 mph 26.5 mph N/A   Clear
12:55 PM 78.8 °F - 35.6 °F 21% 29.72 in 10.0 mi SE 23.0 mph 29.9 mph N/A   Clear
1:15 PM 80.6 °F - 37.4 °F 21% 29.72 in 10.0 mi South 24.2 mph 32.2 mph N/A   Clear
1:35 PM 80.6 °F - 39.2 °F 23% 29.70 in 10.0 mi SSE 25.3 mph 38.0 mph N/A   Clear
1:55 PM 80.6 °F - 37.4 °F 21% 29.70 in 10.0 mi SSE 21.9 mph 34.5 mph N/A   Clear
2:15 PM 82.4 °F - 37.4 °F 20% 29.69 in 10.0 mi SSE 24.2 mph 32.2 mph N/A   Clear
2:35 PM 82.4 °F - 37.4 °F 20% 29.68 in 10.0 mi SSE 24.2 mph 31.1 mph N/A   Clear
2:55 PM 82.4 °F - 39.2 °F 21% 29.66 in 10.0 mi SSE 26.5 mph 34.5 mph N/A   Clear
3:15 PM 82.4 °F - 37.4 °F 20% 29.66 in 10.0 mi SSE 29.9 mph 34.5 mph N/A   Clear
3:35 PM 84.2 °F - 37.4 °F 19% 29.65 in 10.0 mi SSE 26.5 mph 32.2 mph N/A   Clear
3:55 PM 82.4 °F - 37.4 °F 20% 29.66 in 10.0 mi SSE 25.3 mph 32.2 mph N/A   Clear
4:15 PM 82.4 °F - 37.4 °F 20% 29.67 in 10.0 mi South 23.0 mph 31.1 mph N/A   Clear
4:35 PM 82.4 °F - 37.4 °F 20% 29.67 in 10.0 mi SSE 18.4 mph 31.1 mph N/A   Clear
4:55 PM 82.4 °F - 39.2 °F 21% 29.67 in 10.0 mi SSE 27.6 mph 33.4 mph N/A   Clear
5:15 PM 82.4 °F - 39.2 °F 21% 29.68 in 10.0 mi SSE 20.7 mph 31.1 mph N/A   Clear
5:35 PM 82.4 °F - 39.2 °F 21% 29.68 in 10.0 mi SSE 20.7 mph 28.8 mph N/A   Clear
5:55 PM 80.6 °F - 37.4 °F 21% 29.68 in 10.0 mi SSE 20.7 mph 29.9 mph N/A   Clear
6:15 PM 80.6 °F - 37.4 °F 21% 29.68 in 10.0 mi SSE 18.4 mph 26.5 mph N/A   Clear
6:35 PM 78.8 °F - 39.2 °F 24% 29.69 in 10.0 mi South 15.0 mph 20.7 mph N/A   Clear
6:55 PM 75.2 °F - 37.4 °F 25% 29.73 in 10.0 mi West 18.4 mph 25.3 mph N/A   Clear
7:15 PM 73.4 °F - 37.4 °F 27% 29.75 in 10.0 mi West 12.7 mph - N/A   Clear
7:35 PM 71.6 °F - 35.6 °F 27% 29.77 in 10.0 mi West 17.3 mph 20.7 mph N/A   Clear
7:55 PM 71.6 °F - 35.6 °F 27% 29.78 in 10.0 mi West 15.0 mph - N/A   Clear
8:15 PM 66.2 °F - 39.2 °F 37% 29.81 in 6.0 mi West 23.0 mph 33.4 mph N/A   Clear
8:35 PM 64.4 °F - 37.4 °F 37% 29.82 in 5.0 mi West 26.5 mph 33.4 mph N/A   Clear
8:55 PM 60.8 °F - 37.4 °F 42% 29.85 in 5.0 mi WNW 28.8 mph 36.8 mph N/A   Clear
9:15 PM 57.2 °F - 37.4 °F 48% 29.87 in 7.0 mi WNW 29.9 mph 36.8 mph N/A   Clear
9:35 PM 55.4 °F - 37.4 °F 51% 29.90 in 9.0 mi West 26.5 mph 31.1 mph N/A   Clear
9:55 PM 53.6 °F - 37.4 °F 54% 29.92 in 10.0 mi WNW 25.3 mph 33.4 mph N/A   Clear
10:15 PM 53.6 °F - 37.4 °F 54% 29.92 in 10.0 mi WNW 23.0 mph 34.5 mph N/A   Clear
10:35 PM 51.8 °F - 37.4 °F 58% 29.93 in 10.0 mi WNW 27.6 mph 35.7 mph N/A   Clear
10:55 PM 51.8 °F - 39.2 °F 62% 29.96 in 10.0 mi West 28.8 mph 35.7 mph N/A   Clear
11:15 PM 51.8 °F - 39.2 °F 62% 30.00 in 10.0 mi West 26.5 mph 32.2 mph N/A   Partly Cloudy
11:35 PM 51.8 °F - 39.2 °F 62% 29.98 in 10.0 mi WNW 23.0 mph 29.9 mph N/A   Mostly Cloudy
11:55 PM 51.8 °F - 39.2 °F 62% 29.99 in 10.0 mi WNW 19.6 mph 25.3 mph N/A   Overcast